• In Russia
  • List of Countries
  • For 7 days
  • Water Temperature
  • Satellite Maps
  • Weather Map
  • Weather Widgets
  • user-avatar
    Login

    Hourly Weather Perth

    Today, 20 February, Monday

    Time Temperature Precipitation Wind Pressure Humidity
    00:00 +25°C° 0 mm 4 mps 758 mmHg 68%
    01:00 +24°C° 0 mm 3 mps 757 mmHg 69%
    02:00 +22°C° 0 mm 3 mps 757 mmHg 72%
    03:00 +22°C° 0 mm 3 mps 757 mmHg 73%
    04:00 +21°C° 0 mm 3 mps 757 mmHg 74%
    05:00 +21°C° 0 mm 3 mps 757 mmHg 75%
    06:00 +22°C° 0 mm 3 mps 757 mmHg 71%
    07:00 +24°C° 0 mm 3 mps 758 mmHg 67%
    08:00 +24°C° 0 mm 3 mps 758 mmHg 63%
    09:00 +26°C° 0.1 mm 3 mps 757 mmHg 56%
    10:00 +28°C° 0.1 mm 4 mps 757 mmHg 48%
    11:00 +30°C° 0.1 mm 4 mps 757 mmHg 41%
    12:00 +32°C° 0 mm 4 mps 756 mmHg 39%
    13:00 +32°C° 0 mm 5 mps 756 mmHg 37%
    14:00 +33°C° 0 mm 5 mps 755 mmHg 35%
    15:00 +30°C° 0 mm 5 mps 755 mmHg 39%
    16:00 +29°C° 0 mm 5 mps 755 mmHg 42%
    17:00 +27°C° 0 mm 5 mps 755 mmHg 46%
    18:00 +25°C° 0 mm 5 mps 755 mmHg 56%
    19:00 +22°C° 0 mm 5 mps 756 mmHg 66%
    20:00 +20°C° 0 mm 5 mps 756 mmHg 76%
    21:00 +19°C° 0 mm 5 mps 757 mmHg 78%
    22:00 +19°C° 0 mm 5 mps 757 mmHg 79%
    23:00 +17°C° 0 mm 5 mps 757 mmHg 80%

    Tomorrow, 21 February, Tuesday

    Time Temperature Precipitation Wind Pressure Humidity
    00:00 +17°C° 0 mm 5 mps 757 mmHg 77%
    01:00 +17°C° 0 mm 5 mps 757 mmHg 74%
    02:00 +17°C° 0 mm 5 mps 757 mmHg 71%
    03:00 +17°C° 0 mm 5 mps 757 mmHg 70%
    04:00 +17°C° 0 mm 5 mps 757 mmHg 70%
    05:00 +19°C° 0 mm 5 mps 757 mmHg 69%
    06:00 +19°C° 0.1 mm 6 mps 757 mmHg 69%
    07:00 +19°C° 0.1 mm 6 mps 758 mmHg 69%
    08:00 +18°C° 0.1 mm 7 mps 758 mmHg 69%
    09:00 +20°C° 0 mm 7 mps 758 mmHg 61%
    10:00 +22°C° 0 mm 7 mps 759 mmHg 53%
    11:00 +23°C° 0 mm 7 mps 759 mmHg 45%
    12:00 +23°C° 0 mm 7 mps 759 mmHg 43%
    13:00 +23°C° 0 mm 6 mps 759 mmHg 41%
    14:00 +24°C° 0 mm 6 mps 759 mmHg 40%
    15:00 +23°C° 0 mm 6 mps 759 mmHg 42%
    16:00 +23°C° 0 mm 6 mps 759 mmHg 44%
    17:00 +22°C° 0 mm 6 mps 759 mmHg 47%
    18:00 +20°C° 0 mm 5 mps 760 mmHg 53%
    19:00 +19°C° 0 mm 5 mps 760 mmHg 59%
    20:00 +17°C° 0 mm 4 mps 761 mmHg 66%
    21:00 +17°C° 0 mm 4 mps 761 mmHg 67%
    22:00 +15°C° 0 mm 4 mps 762 mmHg 69%
    23:00 +15°C° 0 mm 4 mps 762 mmHg 70%

    Day after tomorrow, 22 February, Wednesday

    Time Temperature Precipitation Wind Pressure Humidity
    00:00 +14°C° 0 mm 3 mps 762 mmHg 71%
    01:00 +14°C° 0 mm 3 mps 762 mmHg 71%
    02:00 +13°C° 0 mm 3 mps 762 mmHg 71%
    03:00 +13°C° 0 mm 3 mps 762 mmHg 73%
    04:00 +12°C° 0 mm 3 mps 763 mmHg 75%
    05:00 +12°C° 0 mm 3 mps 763 mmHg 76%
    06:00 +13°C° 0 mm 3 mps 763 mmHg 71%
    07:00 +16°C° 0 mm 3 mps 763 mmHg 65%
    08:00 +17°C° 0 mm 3 mps 764 mmHg 60%
    09:00 +20°C° 0 mm 3 mps 764 mmHg 51%
    10:00 +22°C° 0 mm 3 mps 764 mmHg 42%
    11:00 +26°C° 0 mm 2 mps 764 mmHg 34%
    12:00 +28°C° 0 mm 2 mps 763 mmHg 30%
    13:00 +29°C° 0 mm 3 mps 763 mmHg 27%
    14:00 +31°C° 0 mm 3 mps 762 mmHg 23%
    15:00 +31°C° 0 mm 3 mps 762 mmHg 26%
    16:00 +30°C° 0 mm 4 mps 761 mmHg 28%
    17:00 +29°C° 0 mm 4 mps 761 mmHg 31%
    18:00 +27°C° 0 mm 4 mps 761 mmHg 40%
    19:00 +23°C° 0 mm 4 mps 762 mmHg 50%
    20:00 +21°C° 0 mm 4 mps 762 mmHg 59%
    21:00 +20°C° 0 mm 4 mps 762 mmHg 63%
    22:00 +19°C° 0 mm 4 mps 763 mmHg 66%
    23:00 +18°C° 0 mm 3 mps 763 mmHg 70%

    23 February, Thursday

    Time Temperature Precipitation Wind Pressure Humidity
    00:00 +18°C° 0 mm 3 mps 763 mmHg 68%
    01:00 +18°C° 0 mm 3 mps 762 mmHg 66%
    02:00 +18°C° 0 mm 3 mps 762 mmHg 64%
    03:00 +18°C° 0 mm 3 mps 762 mmHg 61%
    04:00 +18°C° 0 mm 3 mps 762 mmHg 58%
    05:00 +18°C° 0 mm 3 mps 762 mmHg 54%
    06:00 +20°C° 0 mm 3 mps 762 mmHg 49%
    07:00 +21°C° 0 mm 3 mps 762 mmHg 43%
    08:00 +24°C° 0 mm 3 mps 763 mmHg 38%
    09:00 +27°C° 0 mm 3 mps 763 mmHg 31%
    10:00 +30°C° 0 mm 2 mps 762 mmHg 25%
    11:00 +34°C° 0 mm 2 mps 762 mmHg 19%
    12:00 +36°C° 0 mm 2 mps 762 mmHg 17%
    13:00 +37°C° 0 mm 2 mps 761 mmHg 15%
    14:00 +39°C° 0 mm 3 mps 760 mmHg 14%
    15:00 +38°C° 0 mm 3 mps 760 mmHg 15%
    16:00 +37°C° 0 mm 3 mps 760 mmHg 16%
    17:00 +36°C° 0 mm 4 mps 760 mmHg 17%
    18:00 +33°C° 0 mm 4 mps 760 mmHg 22%
    19:00 +29°C° 0 mm 4 mps 761 mmHg 27%
    20:00 +27°C° 0 mm 4 mps 761 mmHg 31%
    21:00 +26°C° 0 mm 4 mps 761 mmHg 31%
    22:00 +26°C° 0 mm 3 mps 761 mmHg 30%
    23:00 +25°C° 0 mm 3 mps 761 mmHg 29%

    24 February, Friday

    Time Temperature Precipitation Wind Pressure Humidity
    00:00 +25°C° 0 mm 3 mps 761 mmHg 29%
    01:00 +26°C° 0 mm 4 mps 761 mmHg 29%
    02:00 +26°C° 0 mm 4 mps 760 mmHg 28%
    03:00 +26°C° 0 mm 4 mps 760 mmHg 29%
    04:00 +26°C° 0 mm 4 mps 760 mmHg 30%
    05:00 +25°C° 0 mm 4 mps 761 mmHg 31%
    06:00 +27°C° 0 mm 4 mps 761 mmHg 30%
    07:00 +28°C° 0 mm 4 mps 762 mmHg 29%
    08:00 +29°C° 0 mm 4 mps 762 mmHg 28%
    09:00 +32°C° 0 mm 4 mps 762 mmHg 25%
    10:00 +35°C° 0 mm 4 mps 762 mmHg 21%
    11:00 +37°C° 0 mm 4 mps 761 mmHg 17%
    12:00 +39°C° 0 mm 3 mps 761 mmHg 15%
    13:00 +40°C° 0 mm 3 mps 760 mmHg 14%
    14:00 +42°C° 0 mm 3 mps 759 mmHg 12%
    15:00 +42°C° 0 mm 3 mps 759 mmHg 12%
    16:00 +42°C° 0 mm 3 mps 759 mmHg 12%
    17:00 +42°C° 0 mm 4 mps 759 mmHg 12%
    18:00 +38°C° 0 mm 4 mps 759 mmHg 14%
    19:00 +36°C° 0 mm 4 mps 759 mmHg 16%
    20:00 +34°C° 0 mm 4 mps 759 mmHg 18%
    21:00 +34°C° 0 mm 4 mps 759 mmHg 20%
    22:00 +33°C° 0 mm 5 mps 759 mmHg 21%
    23:00 +33°C° 0 mm 5 mps 759 mmHg 22%

    25 February, Saturday

    Time Temperature Precipitation Wind Pressure Humidity
    00:00 +32°C° 0 mm 5 mps 759 mmHg 22%
    01:00 +32°C° 0 mm 5 mps 759 mmHg 23%
    02:00 +30°C° 0 mm 5 mps 759 mmHg 23%
    03:00 +30°C° 0 mm 5 mps 759 mmHg 23%
    04:00 +30°C° 0 mm 5 mps 759 mmHg 24%
    05:00 +29°C° 0 mm 5 mps 759 mmHg 24%
    06:00 +30°C° 0 mm 5 mps 760 mmHg 24%
    07:00 +32°C° 0 mm 5 mps 760 mmHg 24%
    08:00 +33°C° 0 mm 5 mps 760 mmHg 24%
    09:00 +35°C° 0 mm 5 mps 760 mmHg 21%
    10:00 +37°C° 0 mm 5 mps 760 mmHg 19%
    11:00 +40°C° 0 mm 5 mps 760 mmHg 17%
    12:00 +41°C° 0 mm 5 mps 759 mmHg 18%
    13:00 +41°C° 0 mm 5 mps 759 mmHg 19%
    14:00 +41°C° 0 mm 5 mps 758 mmHg 20%
    15:00 +39°C° 0 mm 5 mps 758 mmHg 26%
    16:00 +36°C° 0 mm 4 mps 758 mmHg 32%
    17:00 +34°C° 0 mm 4 mps 758 mmHg 37%
    18:00 +30°C° 0 mm 4 mps 758 mmHg 50%
    19:00 +27°C° 0 mm 3 mps 759 mmHg 62%
    20:00 +24°C° 0 mm 3 mps 759 mmHg 75%
    21:00 +24°C° 0 mm 3 mps 759 mmHg 81%
    22:00 +22°C° 0 mm 3 mps 759 mmHg 86%
    23:00 +21°C° 0 mm 2 mps 759 mmHg 92%
    Show more